Time,TemperatureF,DewpointF,PressureIn,WindDirection,WindDirectionDegrees,WindSpeedMPH,WindSpeedGustMPH,Humidity,HourlyPrecipIn,Conditions,Clouds,dailyrainin,SolarRadiationWatts/m^2,SoftwareType,DateUTC
2013-05-29 06:05:00,55.1,43.9,29.95,WSW,252,0.0,1.0,66,0.00,,,0.00,0,Wunderground v.1.15,2013-05-29 13:05:00,
2013-05-29 06:09:00,55.2,44.0,29.95,South,189,1.0,1.0,66,0.00,,,0.00,0,Wunderground v.1.15,2013-05-29 13:09:00,
2013-05-29 06:14:00,55.2,43.6,29.95,SW,231,1.0,1.0,65,0.00,,,0.00,0,Wunderground v.1.15,2013-05-29 13:14:00,
2013-05-29 06:19:00,55.3,44.1,29.95,WSW,256,0.0,0.0,66,0.00,,,0.00,0,Wunderground v.1.15,2013-05-29 13:19:00,
2013-05-29 06:24:00,55.4,44.2,29.95,WSW,239,0.0,0.0,66,0.00,,,0.00,0,Wunderground v.1.15,2013-05-29 13:24:00,
2013-05-29 06:29:00,55.5,43.9,29.96,SSW,201,0.0,0.0,65,0.00,,,0.00,0,Wunderground v.1.15,2013-05-29 13:29:00,
2013-05-29 06:34:00,55.5,43.9,29.96,SSW,197,0.0,0.0,65,0.00,,,0.00,0,Wunderground v.1.15,2013-05-29 13:34:00,
2013-05-29 06:44:00,55.7,44.1,29.96,WSW,239,0.0,0.0,65,0.00,,,0.00,0,Wunderground v.1.15,2013-05-29 13:44:00,
2013-05-29 06:49:00,55.8,44.2,29.96,SW,215,1.0,1.0,65,0.00,,,0.00,0,Wunderground v.1.15,2013-05-29 13:49:00,
2013-05-29 06:54:00,55.9,44.3,29.96,SSW,206,0.0,1.0,65,0.00,,,0.00,0,Wunderground v.1.15,2013-05-29 13:54:00,
2013-05-29 06:59:00,56.0,44.4,29.96,SSW,196,4.0,4.0,65,0.00,,,0.00,0,Wunderground v.1.15,2013-05-29 13:59:00,
2013-05-29 07:04:00,56.1,44.1,29.96,SSW,194,2.0,4.0,64,0.00,,,0.00,0,Wunderground v.1.15,2013-05-29 14:04:00,
2013-05-29 07:14:00,56.2,44.2,29.96,SSW,209,1.0,2.0,64,0.00,,,0.00,0,Wunderground v.1.15,2013-05-29 14:14:00,
2013-05-29 07:19:00,56.3,44.3,29.96,South,172,1.0,1.0,64,0.00,,,0.00,0,Wunderground v.1.15,2013-05-29 14:19:00,
2013-05-29 07:24:00,56.6,44.6,29.96,SSW,203,1.0,1.0,64,0.00,,,0.00,0,Wunderground v.1.15,2013-05-29 14:24:00,
2013-05-29 07:29:00,56.9,44.8,29.97,SW,224,0.0,0.0,64,0.00,,,0.00,0,Wunderground v.1.15,2013-05-29 14:29:00,
2013-05-29 07:34:00,57.2,45.1,29.96,West,267,0.0,0.0,64,0.00,,,0.00,0,Wunderground v.1.15,2013-05-29 14:34:00,
2013-05-29 07:39:00,57.4,44.9,29.96,SSW,202,2.0,2.0,63,0.00,,,0.00,0,Wunderground v.1.15,2013-05-29 14:39:00,
2013-05-29 07:44:00,57.6,45.1,29.96,WSW,252,0.0,2.0,63,0.00,,,0.00,0,Wunderground v.1.15,2013-05-29 14:44:00,
2013-05-29 07:54:00,58.0,45.5,29.96,SSW,207,0.0,4.0,63,0.00,,,0.00,0,Wunderground v.1.15,2013-05-29 14:54:00,
2013-05-29 07:59:00,58.1,45.1,29.96,SW,236,2.0,2.0,62,0.00,,,0.00,0,Wunderground v.1.15,2013-05-29 14:59:00,
2013-05-29 08:04:00,58.2,45.2,29.97,SW,221,2.0,2.0,62,0.00,,,0.00,0,Wunderground v.1.15,2013-05-29 15:04:00,
2013-05-29 08:09:00,58.3,45.3,29.97,South,175,0.0,0.0,62,0.00,,,0.00,0,Wunderground v.1.15,2013-05-29 15:09:00,
2013-05-29 08:14:00,58.4,45.4,29.97,South,188,3.0,3.0,62,0.00,,,0.00,0,Wunderground v.1.15,2013-05-29 15:14:00,
2013-05-29 08:24:00,58.7,45.7,29.97,SSW,202,0.0,2.0,62,0.00,,,0.00,0,Wunderground v.1.15,2013-05-29 15:24:00,
2013-05-29 08:29:00,58.9,45.9,29.97,SW,221,1.0,1.0,62,0.00,,,0.00,0,Wunderground v.1.15,2013-05-29 15:29:00,
2013-05-29 08:34:00,58.9,45.5,29.98,SSW,202,4.0,4.0,61,0.00,,,0.00,0,Wunderground v.1.15,2013-05-29 15:34:00,
2013-05-29 08:39:00,58.9,45.5,29.98,SSW,203,4.0,4.0,61,0.00,,,0.00,0,Wunderground v.1.15,2013-05-29 15:39:00,
2013-05-29 08:44:00,58.8,45.4,29.98,SSW,205,2.0,4.0,61,0.00,,,0.00,0,Wunderground v.1.15,2013-05-29 15:44:00,
2013-05-29 08:49:00,58.8,45.4,29.97,SSW,209,0.0,0.0,61,0.00,,,0.00,0,Wunderground v.1.15,2013-05-29 15:49:00,
2013-05-29 08:54:00,59.1,45.7,29.98,SSW,193,4.0,4.0,61,0.00,,,0.00,0,Wunderground v.1.15,2013-05-29 15:54:00,
2013-05-29 09:04:00,59.4,45.9,29.98,SSW,205,0.0,3.0,61,0.00,,,0.00,0,Wunderground v.1.15,2013-05-29 16:04:00,
2013-05-29 09:09:00,59.5,46.0,29.98,SSW,210,7.0,7.0,61,0.00,,,0.00,0,Wunderground v.1.15,2013-05-29 16:09:00,
2013-05-29 09:14:00,59.5,46.0,29.99,SSW,199,3.0,7.0,61,0.00,,,0.00,0,Wunderground v.1.15,2013-05-29 16:14:00,
2013-05-29 09:24:00,59.6,46.1,29.98,SSW,203,6.0,6.0,61,0.00,,,0.00,0,Wunderground v.1.15,2013-05-29 16:24:00,
2013-05-29 09:29:00,59.7,46.2,29.98,SSW,201,5.0,5.0,61,0.00,,,0.00,0,Wunderground v.1.15,2013-05-29 16:29:00,
2013-05-29 09:34:00,59.7,46.2,29.98,SSW,208,3.0,5.0,61,0.00,,,0.00,0,Wunderground v.1.15,2013-05-29 16:34:00,
2013-05-29 09:39:00,59.8,46.3,29.98,SSW,201,0.0,0.0,61,0.00,,,0.00,0,Wunderground v.1.15,2013-05-29 16:39:00,
2013-05-29 12:59:00,66.4,54.7,29.97,SSE,160,1.0,1.0,66,0.00,,,0.00,0,Wunderground v.1.15,2013-05-29 19:59:00,
2013-05-29 13:09:00,67.0,51.3,29.96,SSW,200,0.0,0.0,57,0.00,,,0.00,0,Wunderground v.1.15,2013-05-29 20:09:00,
2013-05-29 13:19:00,67.4,52.6,29.96,West,272,1.0,1.0,59,0.00,,,0.00,0,Wunderground v.1.15,2013-05-29 20:19:00,
2013-05-29 13:24:00,67.4,53.5,29.95,WNW,303,1.0,1.0,61,0.00,,,0.00,0,Wunderground v.1.15,2013-05-29 20:24:00,
2013-05-29 13:29:00,67.2,52.4,29.95,WNW,301,8.0,8.0,59,0.00,,,0.00,0,Wunderground v.1.15,2013-05-29 20:29:00,
2013-05-29 13:39:00,67.3,51.1,29.95,SSE,161,0.0,0.0,56,0.00,,,0.00,0,Wunderground v.1.15,2013-05-29 20:39:00,
2013-05-29 13:44:00,67.3,51.1,29.95,NW,304,2.0,2.0,56,0.00,,,0.00,0,Wunderground v.1.15,2013-05-29 20:44:00,
2013-05-29 13:54:00,68.5,56.3,29.95,SSW,204,2.0,2.0,65,0.00,,,0.00,0,Wunderground v.1.15,2013-05-29 20:54:00,
2013-05-29 13:59:00,69.3,59.9,29.95,SW,216,3.0,3.0,72,0.00,,,0.00,0,Wunderground v.1.15,2013-05-29 20:59:00,
2013-05-29 14:09:00,68.5,58.3,29.95,SSW,203,4.0,4.0,70,0.00,,,0.00,0,Wunderground v.1.15,2013-05-29 21:09:00,
2013-05-29 14:14:00,68.4,58.2,29.95,West,279,2.0,4.0,70,0.00,,,0.00,0,Wunderground v.1.15,2013-05-29 21:14:00,
2013-05-29 14:19:00,69.1,58.9,29.95,SW,216,2.0,2.0,70,0.00,,,0.00,0,Wunderground v.1.15,2013-05-29 21:19:00,
2013-05-29 14:29:00,69.6,59.0,29.95,West,270,3.0,3.0,69,0.00,,,0.00,0,Wunderground v.1.15,2013-05-29 21:29:00,
2013-05-29 14:34:00,70.3,59.2,29.95,NW,312,2.0,3.0,68,0.00,,,0.00,0,Wunderground v.1.15,2013-05-29 21:34:00,
2013-05-29 14:44:00,70.6,58.3,29.95,WNW,289,6.0,6.0,65,0.00,,,0.00,0,Wunderground v.1.15,2013-05-29 21:44:00,
2013-05-29 14:49:00,70.2,57.9,29.95,South,184,5.0,5.0,65,0.00,,,0.00,0,Wunderground v.1.15,2013-05-29 21:49:00,
2013-05-29 14:59:00,70.5,57.3,29.95,SSW,192,1.0,1.0,63,0.00,,,0.00,0,Wunderground v.1.15,2013-05-29 21:59:00,
2013-05-29 15:04:00,70.8,58.0,29.95,SSW,197,1.0,1.0,64,0.00,,,0.00,0,Wunderground v.1.15,2013-05-29 22:04:00,
2013-05-29 15:09:00,70.2,57.4,29.95,SW,228,2.0,2.0,64,0.00,,,0.00,0,Wunderground v.1.15,2013-05-29 22:09:00,
2013-05-29 15:19:00,69.2,55.6,29.94,SW,220,3.0,3.0,62,0.00,,,0.00,0,Wunderground v.1.15,2013-05-29 22:19:00,
2013-05-29 15:29:00,68.6,55.9,29.94,SSW,194,5.0,5.0,64,0.00,,,0.00,0,Wunderground v.1.15,2013-05-29 22:29:00,
2013-05-29 15:34:00,68.7,55.6,29.94,SSW,193,9.0,9.0,63,0.00,,,0.00,0,Wunderground v.1.15,2013-05-29 22:34:00,
2013-05-29 15:39:00,68.8,55.2,29.94,SW,229,4.0,4.0,62,0.00,,,0.00,0,Wunderground v.1.15,2013-05-29 22:39:00,
2013-05-29 15:49:00,68.7,55.6,29.94,South,191,8.0,8.0,63,0.00,,,0.00,0,Wunderground v.1.15,2013-05-29 22:49:00,
2013-05-29 15:54:00,68.9,55.8,29.94,SW,232,2.0,8.0,63,0.00,,,0.00,0,Wunderground v.1.15,2013-05-29 22:54:00,
2013-05-29 16:04:00,69.4,55.4,29.93,SW,217,4.0,9.0,61,0.00,,,0.00,0,Wunderground v.1.15,2013-05-29 23:04:00,
2013-05-29 16:09:00,69.1,55.5,29.93,SSW,209,8.0,8.0,62,0.00,,,0.00,0,Wunderground v.1.15,2013-05-29 23:09:00,
2013-05-29 16:14:00,68.8,54.8,29.93,SSW,207,5.0,8.0,61,0.00,,,0.00,0,Wunderground v.1.15,2013-05-29 23:14:00,
2013-05-29 16:19:00,68.6,55.9,29.93,SSW,197,5.0,5.0,64,0.00,,,0.00,0,Wunderground v.1.15,2013-05-29 23:19:00,
2013-05-29 16:24:00,68.7,56.0,29.92,SSW,204,8.0,8.0,64,0.00,,,0.00,0,Wunderground v.1.15,2013-05-29 23:24:00,
2013-05-29 16:29:00,68.1,56.3,29.93,SSW,206,7.0,7.0,66,0.00,,,0.00,0,Wunderground v.1.15,2013-05-29 23:29:00,
2013-05-29 16:39:00,68.0,55.8,29.93,SSW,204,10.0,10.0,65,0.00,,,0.00,0,Wunderground v.1.15,2013-05-29 23:39:00,
2013-05-29 16:44:00,67.7,55.9,29.93,SSW,193,14.0,14.0,66,0.00,,,0.00,0,Wunderground v.1.15,2013-05-29 23:44:00,
2013-05-29 16:49:00,67.2,56.3,29.93,SSW,200,14.0,14.0,68,0.00,,,0.00,0,Wunderground v.1.15,2013-05-29 23:49:00,
2013-05-29 16:54:00,67.1,56.6,29.93,SSW,197,9.0,14.0,69,0.00,,,0.00,0,Wunderground v.1.15,2013-05-29 23:54:00,
2013-05-29 16:59:00,67.0,56.1,29.93,SW,218,1.0,1.0,68,0.00,,,0.00,0,Wunderground v.1.15,2013-05-29 23:59:00,
2013-05-29 17:04:00,66.9,56.4,29.93,SW,224,3.0,3.0,69,0.00,,,0.00,0,Wunderground v.1.15,2013-05-30 00:04:00,
2013-05-29 17:09:00,66.2,56.1,29.93,SSW,200,4.0,4.0,70,0.00,,,0.00,0,Wunderground v.1.15,2013-05-30 00:09:00,
2013-05-29 17:14:00,65.8,56.1,29.93,SW,223,3.0,4.0,71,0.00,,,0.00,0,Wunderground v.1.15,2013-05-30 00:14:00,
2013-05-29 17:19:00,65.7,56.0,29.93,SW,223,3.0,3.0,71,0.00,,,0.00,0,Wunderground v.1.15,2013-05-30 00:19:00,
2013-05-29 17:24:00,65.7,56.0,29.93,SW,227,5.0,5.0,71,0.00,,,0.00,0,Wunderground v.1.15,2013-05-30 00:24:00,
2013-05-29 17:34:00,65.5,56.2,29.93,SW,222,1.0,5.0,72,0.00,,,0.00,0,Wunderground v.1.15,2013-05-30 00:34:00,
2013-05-29 17:39:00,65.6,55.9,29.93,SW,220,4.0,4.0,71,0.00,,,0.00,0,Wunderground v.1.15,2013-05-30 00:39:00,
2013-05-29 17:44:00,65.1,55.8,29.94,SW,223,3.0,4.0,72,0.00,,,0.00,0,Wunderground v.1.15,2013-05-30 00:44:00,
2013-05-29 17:49:00,64.9,55.7,29.93,SSW,211,4.0,4.0,72,0.00,,,0.00,0,Wunderground v.1.15,2013-05-30 00:49:00,
2013-05-29 17:54:00,64.9,55.7,29.93,SSW,195,0.0,4.0,72,0.00,,,0.00,0,Wunderground v.1.15,2013-05-30 00:54:00,
2013-05-29 17:59:00,64.9,55.3,29.94,SSW,209,8.0,8.0,71,0.00,,,0.00,0,Wunderground v.1.15,2013-05-30 00:59:00,
2013-05-29 18:09:00,64.6,56.1,29.93,SSW,204,4.0,4.0,74,0.00,,,0.00,0,Wunderground v.1.15,2013-05-30 01:09:00,
2013-05-29 18:14:00,64.1,55.6,29.94,SSW,197,4.0,4.0,74,0.00,,,0.00,0,Wunderground v.1.15,2013-05-30 01:14:00,
2013-05-29 18:19:00,63.9,55.8,29.93,SW,220,3.0,3.0,75,0.00,,,0.00,0,Wunderground v.1.15,2013-05-30 01:19:00,
2013-05-29 18:24:00,63.5,55.4,29.94,SW,223,4.0,4.0,75,0.00,,,0.00,0,Wunderground v.1.15,2013-05-30 01:24:00,
2013-05-29 18:29:00,63.0,48.9,29.93,SSW,198,14.0,14.0,60,0.00,,,0.00,0,Wunderground v.1.15,2013-05-30 01:29:00,
2013-05-29 18:34:00,62.6,47.6,29.94,SW,229,5.0,14.0,58,0.00,,,0.00,0,Wunderground v.1.15,2013-05-30 01:34:00,
2013-05-29 18:44:00,62.3,53.2,29.93,SW,219,6.0,6.0,72,0.00,,,0.00,0,Wunderground v.1.15,2013-05-30 01:44:00,
2013-05-29 18:49:00,62.1,53.0,29.94,SW,219,1.0,1.0,72,0.00,,,0.00,0,Wunderground v.1.15,2013-05-30 01:49:00,
2013-05-29 18:54:00,62.3,52.4,29.94,SW,218,4.0,4.0,70,0.00,,,0.00,0,Wunderground v.1.15,2013-05-30 01:54:00,
2013-05-29 18:59:00,62.1,49.4,29.93,SSW,196,3.0,3.0,63,0.00,,,0.00,0,Wunderground v.1.15,2013-05-30 01:59:00,
2013-05-29 19:09:00,61.6,47.1,29.93,South,178,3.0,3.0,59,0.00,,,0.00,0,Wunderground v.1.15,2013-05-30 02:09:00,
2013-05-29 19:19:00,61.3,45.9,29.93,SSE,168,4.0,4.0,57,0.00,,,0.00,0,Wunderground v.1.15,2013-05-30 02:19:00,
2013-05-29 19:24:00,61.1,45.3,29.94,SW,230,2.0,4.0,56,0.00,,,0.00,0,Wunderground v.1.15,2013-05-30 02:24:00,
2013-05-29 19:29:00,60.9,45.1,29.93,SW,226,2.0,2.0,56,0.00,,,0.00,0,Wunderground v.1.15,2013-05-30 02:29:00,
2013-05-29 19:34:00,60.8,44.5,29.94,SSW,213,2.0,2.0,55,0.00,,,0.00,0,Wunderground v.1.15,2013-05-30 02:34:00,
2013-05-29 19:39:00,60.8,44.5,29.94,South,182,0.0,0.0,55,0.00,,,0.00,0,Wunderground v.1.15,2013-05-30 02:39:00,
2013-05-29 19:44:00,60.7,44.9,29.94,SSW,205,2.0,2.0,56,0.00,,,0.00,0,Wunderground v.1.15,2013-05-30 02:44:00,
2013-05-29 19:54:00,59.8,45.4,29.94,SSW,208,4.0,4.0,59,0.00,,,0.00,0,Wunderground v.1.15,2013-05-30 02:54:00,
2013-05-29 19:59:00,59.3,47.1,29.94,SSW,202,10.0,10.0,64,0.00,,,0.00,0,Wunderground v.1.15,2013-05-30 02:59:00,
2013-05-29 20:04:00,58.9,45.9,29.94,SSW,205,1.0,10.0,62,0.00,,,0.00,0,Wunderground v.1.15,2013-05-30 03:04:00,
2013-05-29 20:09:00,58.6,44.8,29.94,SSW,210,0.0,0.0,60,0.00,,,0.00,0,Wunderground v.1.15,2013-05-30 03:09:00,
2013-05-29 20:19:00,58.0,45.0,29.94,South,183,2.0,2.0,62,0.00,,,0.00,0,Wunderground v.1.15,2013-05-30 03:19:00,
2013-05-29 20:29:00,57.7,45.2,29.93,SSW,209,6.0,6.0,63,0.00,,,0.00,0,Wunderground v.1.15,2013-05-30 03:29:00,
2013-05-29 20:34:00,57.7,44.8,29.94,SSW,213,5.0,6.0,62,0.00,,,0.00,0,Wunderground v.1.15,2013-05-30 03:34:00,
2013-05-29 20:39:00,57.7,45.2,29.94,South,183,0.0,0.0,63,0.00,,,0.00,0,Wunderground v.1.15,2013-05-30 03:39:00,
2013-05-29 20:44:00,57.6,45.1,29.94,WSW,256,0.0,0.0,63,0.00,,,0.00,0,Wunderground v.1.15,2013-05-30 03:44:00,
2013-05-29 20:49:00,57.5,45.4,29.94,South,182,1.0,1.0,64,0.00,,,0.00,0,Wunderground v.1.15,2013-05-30 03:49:00,
2013-05-29 20:59:00,57.3,43.1,29.94,SSW,205,3.0,3.0,59,0.00,,,0.00,0,Wunderground v.1.15,2013-05-30 03:59:00,
2013-05-29 21:04:00,57.2,43.0,29.95,SSW,204,0.0,3.0,59,0.00,,,0.00,0,Wunderground v.1.15,2013-05-30 04:04:00,
2013-05-29 21:09:00,57.0,43.2,29.95,South,185,0.0,0.0,60,0.00,,,0.00,0,Wunderground v.1.15,2013-05-30 04:09:00,
2013-05-29 21:14:00,56.7,43.4,29.95,WSW,257,1.0,1.0,61,0.00,,,0.00,0,Wunderground v.1.15,2013-05-30 04:14:00,
2013-05-29 21:19:00,56.4,42.7,29.95,SSW,200,3.0,3.0,60,0.00,,,0.00,0,Wunderground v.1.15,2013-05-30 04:19:00,
2013-05-29 21:24:00,56.2,49.4,29.95,WSW,246,2.0,3.0,78,0.00,,,0.00,0,Wunderground v.1.15,2013-05-30 04:24:00,
2013-05-29 21:29:00,56.1,46.8,29.96,SSW,193,1.0,1.0,71,0.00,,,0.00,0,Wunderground v.1.15,2013-05-30 04:29:00,
2013-05-29 21:34:00,55.9,51.1,29.96,WSW,243,0.0,1.0,84,0.00,,,0.00,0,Wunderground v.1.15,2013-05-30 04:34:00,
2013-05-29 21:39:00,55.7,51.3,29.96,SSW,197,1.0,1.0,85,0.00,,,0.00,0,Wunderground v.1.15,2013-05-30 04:39:00,
2013-05-29 21:44:00,55.5,50.4,29.96,SW,221,2.0,2.0,83,0.00,,,0.00,0,Wunderground v.1.15,2013-05-30 04:44:00,
2013-05-29 21:49:00,55.3,43.7,29.96,SSW,208,1.0,1.0,65,0.00,,,0.00,0,Wunderground v.1.15,2013-05-30 04:49:00,
2013-05-29 21:54:00,55.2,42.0,29.97,South,189,0.0,1.0,61,0.00,,,0.00,0,Wunderground v.1.15,2013-05-30 04:54:00,
2013-05-29 22:04:00,54.9,44.1,29.97,South,191,0.0,1.0,67,0.00,,,0.00,0,Wunderground v.1.15,2013-05-30 05:04:00,
2013-05-29 22:09:00,54.8,43.3,29.97,South,178,0.0,0.0,65,0.00,,,0.00,0,Wunderground v.1.15,2013-05-30 05:09:00,
2013-05-29 22:14:00,54.6,41.8,29.98,SSW,197,5.0,5.0,62,0.00,,,0.00,0,Wunderground v.1.15,2013-05-30 05:14:00,
2013-05-29 22:19:00,54.5,42.2,29.97,SSW,195,3.0,3.0,63,0.00,,,0.00,0,Wunderground v.1.15,2013-05-30 05:19:00,
2013-05-29 22:24:00,54.3,41.6,29.97,SW,216,1.0,3.0,62,0.00,,,0.00,0,Wunderground v.1.15,2013-05-30 05:24:00,
2013-05-29 22:34:00,54.1,43.0,29.98,SSW,197,1.0,1.0,66,0.00,,,0.00,0,Wunderground v.1.15,2013-05-30 05:34:00,
2013-05-29 22:39:00,54.0,42.1,29.98,SSW,205,0.0,0.0,64,0.00,,,0.00,0,Wunderground v.1.15,2013-05-30 05:39:00,
2013-05-29 22:44:00,53.8,42.3,29.98,South,186,1.0,1.0,65,0.00,,,0.00,0,Wunderground v.1.15,2013-05-30 05:44:00,
2013-05-29 22:49:00,53.7,41.8,29.98,SSW,198,3.0,3.0,64,0.00,,,0.00,0,Wunderground v.1.15,2013-05-30 05:49:00,
2013-05-29 22:59:00,53.7,42.6,29.98,South,182,0.0,0.0,66,0.00,,,0.00,0,Wunderground v.1.15,2013-05-30 05:59:00,
2013-05-29 23:04:00,53.6,42.9,29.98,West,277,0.0,0.0,67,0.00,,,0.00,0,Wunderground v.1.15,2013-05-30 06:04:00,
2013-05-29 23:09:00,53.6,42.9,29.98,West,266,1.0,1.0,67,0.00,,,0.00,0,Wunderground v.1.15,2013-05-30 06:09:00,
2013-05-29 23:19:00,53.5,43.6,29.98,South,191,0.0,0.0,69,0.00,,,0.00,0,Wunderground v.1.15,2013-05-30 06:19:00,
2013-05-29 23:24:00,53.4,43.9,29.98,SSW,196,0.0,0.0,70,0.00,,,0.00,0,Wunderground v.1.15,2013-05-30 06:24:00,
2013-05-29 23:29:00,53.3,43.4,29.98,SSW,192,3.0,3.0,69,0.00,,,0.00,0,Wunderground v.1.15,2013-05-30 06:29:00,
2013-05-29 23:34:00,53.3,44.1,29.98,SSW,209,1.0,3.0,71,0.00,,,0.00,0,Wunderground v.1.15,2013-05-30 06:34:00,
2013-05-29 23:39:00,53.2,45.1,29.98,SSW,195,2.0,2.0,74,0.00,,,0.00,0,Wunderground v.1.15,2013-05-30 06:39:00,
2013-05-29 23:44:00,53.2,47.5,29.97,SSW,196,1.0,2.0,81,0.00,,,0.00,0,Wunderground v.1.15,2013-05-30 06:44:00,
2013-05-29 23:54:00,53.0,46.3,29.97,South,176,0.0,0.0,78,0.00,,,0.00,0,Wunderground v.1.15,2013-05-30 06:54:00,